This demonstration page uses our WeatherBlox Daily Observations layout. Learn more.

Left ArrowRight Arrow

39.01783, -85.05884

Hourly Observations for October 14, 2021

Temp ( °F °C ) Dew Point ( °F °C ) Humidity (%) Winds ( mph kmh ) Pressure ( in mb ) Visibility ( mi km ) Precip ( " mm )
12:07 am 00:07 Cloudy with Mist and Fog 69 20.6 66 18.9 90 90 S 9 15 29.96 1014 3 5 N/A
12:52 am 00:52 Cloudy with Mist and Fog 69 20.6 67 19.4 93 93 S 10 17 29.95 1014 3 5 N/A
1:12 am 01:12 Cloudy with Mist and Fog 69 20.6 66 18.9 90 90 S 9 15 29.96 1014 4 6 N/A
1:52 am 01:52 Cloudy with Mist and Fog 69 20.6 66 18.9 90 90 S 6 9 29.95 1014 5 8 N/A
2:52 am 02:52 Cloudy with Mist and Fog 68 20 65 18.3 90 90 S 6 9 29.96 1014 4 6 N/A
3:52 am 03:52 Cloudy with Mist and Fog 67 19.4 65 18.3 93 93 S 5 7 29.96 1015 4 6 N/A
4:52 am 04:52 Cloudy with Mist and Fog 67 19.4 65 18.3 93 93 S 5 7 29.96 1015 3 5 N/A
5:52 am 05:52 Mostly Cloudy with Mist and Fog 68 20 65 18.3 90 90 S 5 7 29.98 1015 4 6 N/A
6:52 am 06:52 Mostly Cloudy with Mist and Fog 68 20 65 18.3 90 90 S 6 9 29.98 1015 5 8 N/A
7:52 am 07:52 Mostly Cloudy with Mist and Fog 68 20 65 18.3 90 90 S 8 13 29.99 1016 6 10 N/A
8:52 am 08:52 Mostly Cloudy with Mist and Fog 69 20.6 66 18.9 90 90 S 8 13 30.00 1016 6 10 N/A
9:52 am 09:52 Mostly Cloudy 72 22.2 66 18.9 82 82 SSW 9 15 30.00 1016 8 13 N/A
10:52 am 10:52 Cloudy 73 22.8 66 18.9 79 79 SSW 9 15 30.00 1016 8 13 N/A
11:52 am 11:52 Mostly Cloudy 76 24.4 66 18.9 72 72 SW 7 11 29.98 1015 9 14 N/A
12:52 pm 12:52 Cloudy 77 25 67 19.4 71 71 SSW 8 13 29.98 1015 9 14 N/A
1:52 pm 13:52 Mostly Cloudy 78 25.6 66 18.9 67 67 SW 9 15 29.96 1015 9 14 N/A
2:52 pm 14:52 Mostly Cloudy 78 25.6 66 18.9 67 67 SSW 8 13 29.93 1014 9 14 N/A
3:52 pm 15:52 Mostly Cloudy 78 25.6 65 18.3 64 64 SSW 8 13 29.91 1013 10 16 N/A
4:52 pm 16:52 Mostly Cloudy 78 25.6 65 18.3 64 64 S 7 11 29.90 1013 10 16 N/A
5:52 pm 17:52 Mostly Cloudy 79 26.1 66 18.9 65 65 S 8 13 29.90 1013 10 16 N/A
6:52 pm 18:52 Cloudy 75 23.9 65 18.3 71 71 S 7 11 29.90 1013 10 16 N/A
7:52 pm 19:52 Mostly Cloudy 73 22.8 64 17.8 74 74 S 5 7 29.91 1013 10 16 N/A
8:52 pm 20:52 Mostly Cloudy 73 22.8 64 17.8 74 74 S 7 11 29.91 1013 10 16 N/A
9:52 pm 21:52 Mostly Cloudy 72 22.2 64 17.8 76 76 S 8 13 29.90 1013 10 16 N/A
10:52 pm 22:52 Mostly Cloudy 72 22.2 64 17.8 76 76 SSW 6 9 29.91 1013 10 16 N/A
11:52 pm 23:52 Mostly Cloudy 72 22.2 64 17.8 76 76 S 7 11 29.90 1013 10 16 N/A

Powered by AerisWeather